Aérodrome :
LOGIN :

S'inscrire | Disclaimer

   EN    FR    IT 

 










Légende :    VFR   VFR Marginal   IFR   IFR Intensif   IFR Très Intensif
Visi : 
Plafond : 
>= 8 km
>= 3000ft
5 à 8 km
1000 à 3000 ft
1500m à 5 km
500 à 1000 ft
800 à 1500m
200 à 500 ft
< 800m
< 200 ft
Symboles :   Orages  Brouillard  Fortes neiges  Fortes précipitations  Vent > 20 kt
SIGMETs :   Divers  Orages  Givrage  Turbulence  Onde Orograph.  Cendres Volcan.







- Altitude de l'aérodrome : 100 ft
- Code IATA : DCI


LIED - Decimomannu Air Base

DERNIER METAR :
  • 221755Z 32017KT 9999 SCT035 15/13 Q1018 RMK SCT VIS MIN 9999 WIND THR35 33014KT WIND THR17 /////KT BLU

METARs EXPIRÉS :
  • 221655Z 31017KT 9999 SCT030 15/13 Q1018 RMK BKN SCT200 VIS MIN 9999 WIND THR35 32015KT WIND THR17 /////KT BLU
  • 221555Z 31023KT 9999 SCT025 16/14 Q1018 RMK BKN SCT200 VIS MIN 9999 WIND THR35 31023KT WIND THR17 /////KT BLU
  • 221455Z 31025KT 9999 SCT030 16/14 Q1017 RMK BKN SCT200 VIS MIN 9999 WIND THR35 31019KT WIND THR17 /////KT BLU

TAF TAF LIED
Valide du 22 à 18h jusqu'au 23 à 03h UTC


221700Z 2218/2303 31018G28KT 9999 SCT025
TEMPO 2218/2221 31028G38KT
Pas de NOTAMs connus pour ce terrain.



MET'MAP, la Météo Aéronautique d'un coup d'oeil ! - Copyright ORBIFLY Décembre 2007 - Disclaimer

ORBIFLY MET'MAP TEAM :

Programmation & Développement : Alexandra Zaïnal
Conception & Développement : Baudouin d'Aumeries
Co-Programmation & Développement : Marc-Olivier Méhu
Soutien technique & logistique : Manuel Goepfert

Contact : metmap@orbifly.com




SOURCES & CREDITS :

   NOAA